sat.trackr.live / text

‹ back to catalog

STARLINK-30600

NORAD 58100 · 2023-161D

PAYLOAD ACTIVE UNKNOWN

§ Identity

Operator
Country
US
Launch date
2023-10-21
Launch site
AFWTR
Launch vehicle
Mass (kg)
RCS (m²)

Purposes: comms

External: N2YO · Heavens-Above · Gunter

§ Orbital elements

Epoch: 2026-05-24T19:09:03.528864Z

Period
94.11 min
Inclination
53.1594°
Eccentricity
0.0001180
Mean motion
15.30189398 rev/d
Perigee alt
474.4 km
Apogee alt
476.1 km
Semi-major
6,853.4 km
B*
1.2937e-5
RAAN
172.0433°
Arg perigee
83.3592°
Mean anomaly
276.7543°
Rev number
14,607

§ Raw data

STARLINK-306001 58100U 23161D   26144.79795751  .00000024  00000+0  12937-4 0  99952 58100  53.1594 172.0433 0001180  83.3592 276.7543 15.30189398146072

JSON: /api/v1/satellites/58100 · /tle

For live sub-satellite position, see the globe view (requires WebGL).

§ Visibility from observer

Set your observer location to see the next 7 days of passes ≥ 10°. The values pass through the URL so the page stays shareable.

No JS? Fill the form by hand. The geolocation button needs JavaScript.